Henderson, NV

11:37 PM PDT on April 26, 2018 (GMT -0700)
Henderson

Weather History for KHND - November, 2012

Change the Weather History Date:

Thursday, November 1, 2012

  Actual Average (KLAS) Record (KLAS)
Temperature  
Mean Temperature 68 °F -  
Max Temperature 81 °F 72 °F 87 °F (1988)
Min Temperature 54 °F 46 °F 33 °F (1971)
Cooling Degree Days 2    
Growing Degree Days 18 (Base 50)    
Moisture  
Dew Point 22 °F    
Average Humidity 20    
Maximum Humidity 31    
Minimum Humidity 9    
Precipitation  
Precipitation 0.00 in - - ()
Sea Level Pressure  
Sea Level Pressure 29.84 in    
Wind  
Wind Speed 4 mph (South)    
Max Wind Speed 15 mph    
Max Gust Speed -    
Visibility 10 miles    
Events      
Averages and records for this station are not official NWS values.
T = Trace of Precipitation, MM = Missing Value Source: NWS Daily Summary

Daily Weather History Graph

Daily Weather History Graph

Search for Another Location

Airport or City:

Astronomy

Nov. 01, 2012 Rise Set
Actual Time 7:03 AM PDT 5:44 PM PDT
Civil Twilight 6:36 AM PDT 6:10 PM PDT
Nautical Twilight 6:06 AM PDT 6:40 PM PDT
Astronomical Twilight 5:36 AM PDT 7:10 PM PDT
Moon 7:48 PM PDT (11/1) 9:35 AM PDT (11/1)
Length of Visible Light 11h 33m
Length of Day
10h 40m
Waning Gibbous, 92% of the Moon is Illuminated
Nov 1
Waning Gibbous
Nov 6
Last Quarter
Nov 13
New
Nov 20
First Quarter
Nov 28
Full

Hourly Weather History & Observations

Time (PDT) Temp. Dew Point Humidity Pressure Visibility Wind Dir Wind Speed Gust Speed Precip Events Conditions
12:56 AM 56.8 °F 24.1 °F 28% 29.86 in 10.0 mi Calm Calm - N/A   Clear
2:56 AM 56.8 °F 23.0 °F 27% 29.86 in 10.0 mi SSW 8.1 mph - N/A   Clear
3:56 AM 55.9 °F 23.0 °F 28% 29.84 in 10.0 mi Calm Calm - N/A   Clear
4:56 AM 55.9 °F 23.0 °F 28% 29.86 in 10.0 mi South 9.2 mph - N/A   Clear
5:56 AM 54.0 °F 24.1 °F 31% 29.87 in 10.0 mi Calm Calm - N/A   Clear
6:56 AM 54.9 °F 23.0 °F 29% 29.87 in 10.0 mi South 5.8 mph - N/A   Clear
9:56 AM 64.9 °F 28.0 °F 25% 29.90 in 10.0 mi Calm Calm - N/A   Clear
10:56 AM 70.0 °F 28.0 °F 21% 29.90 in 10.0 mi Calm Calm - N/A   Clear
11:56 AM 72.0 °F 32.0 °F 23% 29.87 in 10.0 mi NNE 3.5 mph - N/A   Clear
12:56 PM 74.8 °F 32.0 °F 21% 29.84 in 10.0 mi NNE 5.8 mph - N/A   Clear
1:56 PM 77.9 °F 25.2 °F 14% 29.81 in 10.0 mi South 5.8 mph - N/A   Clear
2:56 PM 81.9 °F 17.1 °F 9% 29.78 in 10.0 mi South 10.4 mph - N/A   Clear
3:56 PM 81.0 °F 16.2 °F 9% 29.78 in 10.0 mi WSW 15.0 mph - N/A   Clear
4:56 PM 78.8 °F 15.8 °F 9% 29.90 in 10.0 mi Calm Calm - N/A   Clear
5:56 PM 73.9 °F 18.1 °F 12% 29.80 in 10.0 mi Calm Calm - N/A   Clear
6:56 PM 70.0 °F 18.1 °F 14% 29.81 in 10.0 mi South 8.1 mph - N/A   Clear
7:56 PM 68.9 °F 18.1 °F 14% 29.81 in 10.0 mi South 4.6 mph - N/A   Clear
8:56 PM 65.8 °F 20.1 °F 17% 29.83 in 10.0 mi Calm Calm - N/A   Clear
9:56 PM 64.9 °F 21.0 °F 19% 29.83 in 10.0 mi Calm Calm - N/A   Clear
10:56 PM 63.0 °F 20.1 °F 19% 29.83 in 10.0 mi South 10.4 mph - N/A   Clear
11:56 PM 61.0 °F 21.0 °F 21% 29.83 in 10.0 mi SSW 10.4 mph - N/A   Clear